Location: Unspecified
(52.4292°N, 19.3359°E)
Time: 17:36:07
(UTC+02:00)

Transit 2A Rocket - Pass Details

Date: 29 May 2024
Orbit: 583 x 910 km, 66.7° (Epoch: 22 June)

Event Time Altitude Azimuth Distance (km) Brightness Sun altitude
Rises 02:06:15 0° 174° (S) 3,002 - -13.6°
Reaches altitude 10° 02:08:52 10° 160° (SSE) 2,148 - -13.4°
Exits shadow 02:09:03 11° 158° (SSE) 2,095 6.8 -13.4°
Maximum altitude 02:12:39 23° 109° (ESE) 1,543 6.6 -13.2°
Drops below altitude 10° 02:16:43 10° 59° (ENE) 2,330 8.4 -13.0°
Sets 02:19:41 0° 46° (NE) 3,326 9.7 -12.8°
